User: anonymous   Login
Location: Maccacari
(45.1333°N, 11.1333°E)
Time: 05:19:30
(UTC+00:00)
Language:

S-56A Canister/Altair - Orbit

View from above orbital plane
View from above orbital plane
View from above satellite
View from above satellite

Ground track
Ground track

The orbit data is extracted from the following two-line orbital elements,

1 00082U 61004B   21208.24326746 -.00000127  00000-0 -77567-4 0  9996
2 00082  38.8622 139.4920 1176544 237.2318 110.9615 12.26029429857496
Epoch (UTC): 27 July 2021 05:50:18
Eccentricity: 0.1176544
inclination: 38.8622°
perigee height: 631 km
apogee height: 2501 km
right ascension of ascending node: 139.4920°
argument of perigee: 237.2318°
revolutions per day: 12.26029429
mean anomaly at epoch: 110.9615°
orbit number at epoch: 85749

The dashed part of the orbit path shows where the satellite is in the earth's shadow,  

DLR